sat.trackr.live / text

‹ back to catalog

STARLINK-30335

NORAD 57710 · 2023-129N

PAYLOAD ACTIVE UNKNOWN

§ Identity

Operator
Country
US
Launch date
2023-08-27
Launch site
AFETR
Launch vehicle
Mass (kg)
RCS (m²)

Purposes: comms

External: N2YO · Heavens-Above · Gunter

§ Orbital elements

Epoch: 2026-05-25T02:56:34.176192Z

Period
94.27 min
Inclination
43.0046°
Eccentricity
0.0001215
Mean motion
15.27586965 rev/d
Perigee alt
482.2 km
Apogee alt
483.9 km
Semi-major
6,861.2 km
B*
5.2781e-5
RAAN
46.1115°
Arg perigee
256.1905°
Mean anomaly
103.8811°
Rev number
15,237

§ Raw data

STARLINK-303351 57710U 23129N   26145.12261778  .00001191  00000+0  52781-4 0  99972 57710  43.0046  46.1115 0001215 256.1905 103.8811 15.27586965152378

JSON: /api/v1/satellites/57710 · /tle

For live sub-satellite position, see the globe view (requires WebGL).

§ Visibility from observer

Set your observer location to see the next 7 days of passes ≥ 10°. The values pass through the URL so the page stays shareable.

No JS? Fill the form by hand. The geolocation button needs JavaScript.